Regional Weather Roundup
Issued by NWS

Home | Current Version | Previous Version | Text Only | Print | Product List | Glossary Off
Versions: 1 2 3 4 5 6 7 8 9 10 11 12 13 14 15 16 17 18 19 20 21 22 23 24 25 26 27 28 29 30 31 32 33 34 35 36 37 38 39 40 41 42 43 44 45 46 47 48 49 50

796
ASUS43 KOAX 191810
RWRNE

WEATHER ROUNDUP FOR NEBRASKA
NATIONAL WEATHER SERVICE OMAHA NE
1200 PM CST MON FEB 19 2018

NOTES: SATELLITE DATA IS BEING USED TO AUGMENT CLOUD COVER ABOVE
       12000 FEET.
       "FAIR" INDICATES FEW OR NO CLOUDS BELOW 12,000 FEET WITH NO
       SIGNIFICANT WEATHER AND/OR OBSTRUCTIONS TO VISIBILITY.


NEZ001>004-019>022-054>056-191900-
NEBRASKA PANHANDLE

CITY           SKY/WX    TMP DP  RH WIND       PRES   REMARKS
SCOTTSBLUFF    LGT SNOW   7   0  73 N8        29.83F WCI  -6
6HR MIN TEMP:   6; 6HR MAX TEMP:   8; 6HR PCP:  0.01;

ALLIANCE       CLOUDY     4   0  83 N17       29.83S FOG     WCI -16
6HR MIN TEMP:   4; 6HR MAX TEMP:   5; 6HR PCP: TRACE;

CHADRON        LGT SNOW   4  -3  73 NE16      29.94F WCI -15
6HR MIN TEMP:   2; 6HR MAX TEMP:   4; 6HR PCP: TRACE;

GORDON         FLURRIES   4  -3  71 N15G21    29.89R WCI -14
6HR MIN TEMP:   4; 6HR MAX TEMP:   4;

KIMBALL        LGT SNOW   7   2  79 NE8       29.72F WCI  -5
SIDNEY         LGT SNOW   8   4  83 N12       29.77S FOG     WCI  -7
6HR MIN TEMP:   6; 6HR MAX TEMP:   8; 6HR PCP: TRACE;

$$

NEZ057>060-069>072-079>082-191900-
SOUTHWEST NEBRASKA

CITY           SKY/WX    TMP DP  RH WIND       PRES   REMARKS
NORTH PLATTE   FLURRIES  13   6  74 N15       29.85F WCI  -3
6HR MIN TEMP:  11; 6HR MAX TEMP:  13; 6HR PCP: TRACE;

IMPERIAL       FLURRIES  13   8  81 N15       29.82F WCI  -3
6HR MIN TEMP:  12; 6HR MAX TEMP:  13; 6HR PCP: TRACE;

LEXINGTON      FLURRIES  16  11  80 N18       29.85F WCI   0
MCCOOK         LGT SNOW  17  12  80 N10       29.85S WCI   5
6HR MIN TEMP:  15; 6HR MAX TEMP:  16; 6HR PCP: TRACE;

OGALLALA       CLOUDY    13   8  81 NE12      29.84S WCI  -1
$$

NEZ005>010-023>029-035>040-094-191900-
NORTH CENTRAL NEBRASKA

CITY           SKY/WX    TMP DP  RH WIND       PRES   REMARKS
VALENTINE      LGT SNOW   9   2  73 N14       29.94S WCI  -7
6HR MIN TEMP:   8; 6HR MAX TEMP:   9; 6HR PCP: TRACE;

AINSWORTH      LGT SNOW   8   5  84 N18       29.91S WCI -10
BROKEN BOW     FLURRIES  12   7  80 N23G30    29.85F WCI  -7
6HR MIN TEMP:  12; 6HR MAX TEMP:  13; 6HR PCP: TRACE;

O`NEILL        LGT SNOW  11   8  85 N23G30    29.90S WCI  -8
ORD            LGT SNOW  14   9  80 N20       29.87F WCI  -3
6HR MIN TEMP:  13; 6HR MAX TEMP:  14; 6HR PCP: TRACE;

THEDFORD       CLOUDY    10   5  81 N16G22    29.87F WCI  -8
$$

NEZ041-046>049-061>064-073>077-083>087-191900-
SOUTH CENTRAL NEBRASKA

CITY           SKY/WX    TMP DP  RH WIND       PRES   REMARKS
GRAND ISLAND   LGT SNOW  17  13  84 N16       29.87R FOG     WCI   2
6HR MIN TEMP:  16; 6HR MAX TEMP:  17; 6HR PCP: TRACE;

AURORA         FLURRIES  17  14  86 N14       29.87R WCI   3
HASTINGS       LGT SNOW  17  13  84 N17       29.87R FOG     WCI   1
6HR MIN TEMP:  15; 6HR MAX TEMP:  17; 6HR PCP: TRACE;

HEBRON         CLOUDY    22  19  87 N10G18    29.86S WCI  11
HOLDREGE       LGT SNOW  17  14  90 N15       29.84F WCI   2
KEARNEY        FLURRIES  16  12  84 N14       29.87R WCI   2
YORK           MOSUNNY   19  19 100 N13G21    29.85R WCI   7
$$

NEZ011>018-030>034-042>045-191900-
NORTHEAST NEBRASKA

CITY           SKY/WX    TMP DP  RH WIND       PRES   REMARKS
NORFOLK        LGT SNOW  17  15  92 N16G25    29.84S FOG     WCI   2
6HR MIN TEMP:  17; 6HR MAX TEMP:  18; 6HR PCP: TRACE;

ALBION         LGT SNOW  16  11  82 N15G21    29.85F WCI   1
BLAIR          CLOUDY    23  21  93 NW12      29.81S FOG     WCI  11
COLUMBUS       MIX PCPN  20  17  88 N18G24    29.85F WCI   5
FREMONT        CLOUDY    21  19  93 N9        29.85S WCI  11
TEKAMAH        FRZ RAIN  22  20  92 N20       29.84R FOG     WCI   7
6HR MIN TEMP:  21; 6HR MAX TEMP:  24; 6HR PCP: TRACE;

WAYNE          CLOUDY    18  17  96 N10       29.85F FOG     WCI   6
$$

NEZ050>053-065>068-078-088>093-191900-
SOUTHEAST NEBRASKA

CITY           SKY/WX    TMP DP  RH WIND       PRES   REMARKS
LINCOLN        FLURRIES  22  19  89 N17       29.85S WCI   8
6HR MIN TEMP:  22; 6HR MAX TEMP:  25; 6HR PCP: TRACE;

OMAHA EPPLEY   CLOUDY    24  22  91 NW15      29.82R FOG     WCI  11
6HR MIN TEMP:  24; 6HR MAX TEMP:  28; 6HR PCP: TRACE;

BEATRICE       CLOUDY    25  23  93 N15       29.84R WCI  12
FALLS CITY     CLOUDY    28  26  92 NW16G24   29.80R WCI  16
6HR MIN TEMP:  28; 6HR MAX TEMP:  38;

NEBRASKA CITY  CLOUDY    25  25 100 N15       29.81R FOG     WCI  13
PLATTSMOUTH    CLOUDY    24  24  99 NW12      29.81R FOG     WCI  13
$$

NEZ044-045-051>053-067-191900-
OMAHA AREA

CITY           SKY/WX    TMP DP  RH WIND       PRES   REMARKS
OMAHA EPPLEY   CLOUDY    24  22  91 NW15      29.82R FOG     WCI  11
6HR MIN TEMP:  24; 6HR MAX TEMP:  28; 6HR PCP: TRACE;

BLAIR          CLOUDY    23  21  93 NW12      29.81S FOG     WCI  11
FREMONT        CLOUDY    21  19  93 N9        29.85S WCI  11
MILLARD        CLOUDY    25  22  89 NW9G17    29.83S WCI  15
OFFUTT AFB     CLOUDY    24  22  92 NW10      29.82R WCI  14
PLATTSMOUTH    CLOUDY    24  24  99 NW12      29.81R FOG     WCI  13
WAHOO          CLOUDY    22  20  91 N16       29.84S WCI   8
$$




USA.gov is the U.S. government's official web portal to all federal, state and local government web resources and services.